Location: Newark
(53.3333°N, 83.7500°E)
Time: 02:57:32
(UTC+00:00)

Vanguard 2 - Pass Details

Date: 22 November 2019
Orbit: 553 x 2938 km, 32.9° (Epoch: 14 December)

Event Time Altitude Azimuth Distance (km) Brightness Sun altitude
Rises 03:10:47 0° 234° (SW) 5,435 11.8 7.0°
Reaches altitude 10° 03:16:29 10° 218° (SW) 3,898 11.3 7.5°
Maximum altitude 03:21:49 16° 184° (S) 2,894 11.3 8.0°
Drops below altitude 10° 03:26:00 10° 148° (SSE) 2,912 13.3 8.4°
Sets 03:29:20 0° 127° (SE) 3,519 12.7 8.7°
